Flag for France Weather past 2 weeks in Périgueux, France

Now
43 °F

Broken clouds.


Feels Like: 37 °F
Forecast: 32 / 49 °F
Wind: 10 mph from Northwest

Location: Bergerac Airport

Current Time: Feb 27, 2015 at 8:50:05 AM

Latest Report: Feb 27, 2015 at 8:30 AM


Visibility: N/A

Pressure: 30.21 "Hg

Humidity: 81%

Dew point: 37 °F

Location of PérigueuxLocation

Historic Weather in Périgueux — Graph

°F

Périgueux temperature yesterday

Maximum temperature yesterday: 55 °F (at 5:00 PM)
Minimum temperature yesterday: 48 °F (at 6:30 AM)
Average temperature yesterday: 51 °F

Past Weeks' High & Low Weather Summary

 TemperatureHumidityPressure
High61 °F (Feb 13, 2:30 PM)100% (Feb 12, 11:30 PM)30.66 "Hg (Feb 12, 11:30 PM)
Low27 °F (Feb 19, 4:00 AM)44% (Feb 13, 5:00 PM)29.68 "Hg (Feb 21, 3:30 AM)
Average44 °F84%30.11 "Hg
* Reported Feb 12 7:00 AM — Feb 27 7:30 AM, Périgueux, Weather by CustomWeather, © 2015

Note: Actual official high and low records may vary slightly from our data, if they occured in-between our weather recording intervals... More about our weather records

Advertising

Périgueux weather history for previous 24 hours

 ConditionsComfort  
Time TempWeatherWind HumidityBarometerVisibility
7:30 AM
Fri, Feb 27
41 °FClear.9 mph81%30.15 "HgN/A
7:00 AM43 °FOvercast.10 mph81%30.15 "HgN/A
6:30 AM43 °FMostly cloudy.14 mph87%30.12 "HgN/A
6:00 AM45 °FMostly cloudy.15 mph81%30.12 "HgN/A
5:30 AM45 °FMostly cloudy.14 mph87%30.09 "HgN/A
4:30 AM45 °FMostly cloudy.10 mph93%30.07 "HgN/A
3:30 AM46 °FLight rain. Partly cloudy.13 mph93%30.07 "HgN/A
3:00 AM46 °FLight rain. Mostly cloudy.10 mph93%30.04 "HgN/A
2:30 AM46 °FPassing clouds.12 mph93%30.04 "HgN/A
2:00 AM48 °FMostly cloudy.17 mph87%30.04 "HgN/A
1:30 AM50 °FDrizzle. Fog.17 mph88%30.01 "Hg3 mi
1:00 AM50 °FLight rain. Fog.17 mph94%30.01 "Hg3 mi
12:30 AM52 °FLow clouds.17 mph94%29.98 "HgN/A
12:00 AM52 °FLow clouds.16 mph94%29.98 "HgN/A
11:30 PM
Thu, Feb 26
52 °FDrizzle. Low clouds.13 mph94%29.98 "HgN/A
11:00 PM52 °FLow clouds.10 mph100%29.98 "HgN/A
10:30 PM52 °FLight rain. Low clouds.9 mph100%29.98 "HgN/A
10:00 PM52 °FLight rain. Low clouds.9 mph100%30.01 "HgN/A
9:30 PM52 °FLight rain. Low clouds.7 mph100%30.01 "HgN/A
9:00 PM52 °FRain. Fog.6 mph94%30.01 "Hg2 mi
8:30 PM52 °FLight rain. Mostly cloudy.7 mph94%30.04 "HgN/A
8:00 PM52 °FLight rain. Mostly cloudy.6 mph94%30.04 "HgN/A
7:30 PM52 °FMostly cloudy.3 mph94%30.04 "HgN/A
7:00 PM54 °FMostly cloudy.6 mph88%30.07 "HgN/A
6:30 PM54 °FMostly cloudy.3 mph82%30.07 "HgN/A
6:00 PM54 °FMostly cloudy.8 mph82%30.07 "HgN/A
5:30 PM55 °FMostly cloudy.9 mph77%30.07 "HgN/A
5:00 PM55 °FPartly sunny.6 mph82%30.07 "HgN/A
4:30 PM54 °FMore clouds than sun.8 mph88%30.09 "HgN/A
4:00 PM52 °FMore clouds than sun.9 mph94%30.09 "HgN/A
3:30 PM52 °FLight rain. Mostly cloudy.13 mph94%30.12 "Hg5 mi
3:00 PM52 °FLight rain. Mostly cloudy.14 mph94%30.12 "Hg4 mi
2:30 PM54 °FLight rain. Mostly cloudy.17 mph94%30.12 "Hg4 mi
2:00 PM54 °FMostly cloudy.8 mph94%30.12 "Hg6 mi
1:30 PM54 °FLight rain. Fog.9 mph94%30.15 "Hg2 mi
1:00 PM54 °FMostly cloudy.8 mph94%30.15 "HgN/A
12:30 PM52 °FMostly cloudy.10 mph100%30.18 "Hg4 mi
12:00 PM52 °FDrizzle. Low clouds.10 mph94%30.18 "Hg4 mi
11:30 AM52 °FDrizzle. Low clouds.9 mph94%30.18 "Hg4 mi
11:00 AM52 °FDrizzle. Low clouds.8 mph94%30.18 "Hg4 mi
10:30 AM50 °FLow clouds.8 mph100%30.18 "HgN/A
10:00 AM50 °FLow clouds.8 mph100%30.18 "Hg6 mi
9:30 AM50 °FLow clouds.8 mph94%30.18 "Hg4 mi
9:00 AM50 °FDrizzle. Low clouds.9 mph94%30.18 "Hg4 mi
8:30 AM48 °FFog.9 mph100%30.18 "Hg3 mi
8:00 AM48 °FRain. Low clouds.7 mph100%30.18 "Hg6 mi
Weather by CustomWeather, © 2015

See weather overviewHow to use our weather pages